Regional Weather Roundup
Issued by NWS Cleveland, OH

Home | Current Version | Previous Version | Text Only | Print | Product List | Glossary Off
Versions: 1 2 3 4 5 6 7 8 9 10 11 12 13 14 15 16 17 18 19 20 21 22 23 24 25 26 27 28 29 30 31 32 33 34 35 36 37 38 39 40 41 42 43 44 45 46 47 48 49 50

000
ASUS41 KCLE 051810
RWRCLE
OHIO REGIONAL WEATHER ROUNDUP
NATIONAL WEATHER SERVICE WILMINGTON, OH
200 PM EDT TUE MAY 05 2015

NOTE: "FAIR" INDICATES FEW OR NO CLOUDS BELOW 12,000 FEET WITH NO
SIGNIFICANT WEATHER AND/OR OBSTRUCTIONS TO VISIBILITY.

OHZ001>008-015>018-024>027-034-035-043-044-051900-
   NORTHWEST OHIO

CITY           SKY/WX    TMP DP  RH WIND       PRES   REMARKS
DEFIANCE       LGT RAIN  59  56  89 NE8       30.26R FOG
FINDLAY        PTSUNNY   72  62  71 SE5       30.23F
TOLEDO EXPRESS CLOUDY    56  51  84 E5        30.27S
TOLEDO EXEC    CLOUDY    55  48  77 NE9       30.28F
LIMA           MOSUNNY   74  62  66 S8        30.23F
$$

OHZ009>014-019>023-028>033-038-089-051900-
   NORTHEAST OHIO

CITY           SKY/WX    TMP DP  RH WIND       PRES   REMARKS
CLE-HOPKINS    LGT RAIN  67  61  81 S6        30.27F FOG
CLE-LAKEFRONT  CLOUDY    53  50  89 CALM      30.25F FOG
CUY CO. ARPT   LGT RAIN  68  64  88 NW6       30.27S FOG
LORAIN-ELYRIA  LGT RAIN  66  60  81 W3        30.25F
ASHTABULA      CLOUDY    65  61  87 SW9       30.27S FOG
AKRON-CANTON   PTSUNNY   72  58  61 VRB3      30.27F
WOOSTER        MOSUNNY   71  61  70 NW8       30.27F
MANSFIELD      PTSUNNY   71  60  68 N5        30.26F
YOUNGSTOWN     LGT RAIN  68  60  75 SW5       30.27F FOG
$$

OHZ042-051>053-060>062-070>072-077>081-051900-
  SOUTHWEST OHIO

CITY           SKY/WX    TMP DP  RH WIND       PRES   REMARKS
CINC-COVINGTON PTSUNNY   80  54  40 W9        30.25F
CINC-LUNKEN    MOSUNNY   80  56  43 SW8       30.24F
HAMILTON       SUNNY     84  52  33 SW12G22   30.24F
DAYTON         MOSUNNY   79  55  43 W12       30.25F
WRIGHT-PAT AFB NOT AVBL
DAYTON GENERAL SUNNY     79  54  41 SW10      30.24F
WILMINGTON     MOSUNNY   80  55  42 SW9       30.25F
$$

OHZ036-037-039>041-045>050-054>059-063>069-073>076-082>088-051900-
  CENTRAL AND SOUTHEAST OHIO

CITY           SKY/WX    TMP DP  RH WIND       PRES   REMARKS
COLUMBUS       MOSUNNY   78  59  51 SW12      30.24F
OSU AIRPORT    MOSUNNY   79  59  50 SW10      30.24F
BOLTON FIELD   PTSUNNY   77  57  50 W3        30.25F
RICKENBACK AFB PTSUNNY   79  58  48 S9        30.24F
NEWARK         SUNNY     77  59  53 W7        30.25F
MARION         PTSUNNY   74  62  66 VRB3      30.25F
LANCASTER      PTSUNNY   79  58  48 VRB5      30.26F
ZANESVILLE     SUNNY     76  58  53 W7        30.26F
NEW PHILLY     MOSUNNY   74  62  66 CALM      30.27F
$$


USA.gov is the U.S. government's official web portal to all federal, state and local government web resources and services.